GFSSE_850_spd_000.txt.gz
Wind_Speed
17 20 18 19 19 18 16 14 13 12 11 11 10 9 9 11 10 11 10 11 11 9 9 9 10 9 9 8 8 8 9 11 14 15 16 15 16 19 19 16 10 13 14
19 18 16 19 20 18 15 13 11 11 11 10 9 8 7 9 9 9 10 9 9 9 9 9 10 9 7 6 7 11 10 14 15 16 16 16 17 18 18 17 10 11 13
16 15 15 19 19 17 14 11 9 9 10 11 9 7 7 6 8 8 9 8 7 7 7 7 8 8 6 6 8 10 13 15 14 13 14 14 16 14 15 15 8 13 14
15 11 16 19 18 16 14 10 9 9 10 11 9 7 5 6 5 6 8 5 5 5 5 6 6 7 6 6 7 10 14 15 15 19 18 6 12 12 12 10 11 14 15
17 14 16 18 18 16 14 11 10 9 10 10 8 7 5 4 5 4 4 4 4 3 5 4 4 6 7 7 8 11 15 17 19 17 16 15 4 11 11 11 13 14 14
15 16 13 15 19 17 14 11 10 10 10 9 8 6 5 3 4 3 3 2 3 3 4 4 4 6 8 8 9 10 16 16 14 15 16 10 5 10 12 12 14 14 12
18 16 10 11 17 17 14 11 9 9 10 9 8 7 6 5 4 4 4 2 2 2 4 4 5 6 8 9 9 10 18 15 11 9 16 11 9 8 14 12 12 11 10
15 14 12 10 14 16 15 12 10 10 11 10 9 8 8 7 6 5 5 4 3 3 3 5 5 6 9 9 9 12 20 15 10 12 9 9 9 10 12 11 11 11 10
15 9 8 12 14 14 14 12 11 10 11 11 11 10 9 8 7 6 6 6 4 5 5 5 5 6 8 8 9 14 19 19 13 18 11 8 9 11 11 11 11 11 10
14 10 6 9 12 14 15 13 11 11 12 13 13 12 10 8 8 8 8 6 6 7 6 6 6 7 7 7 9 16 21 16 14 11 13 10 11 10 11 11 10 10 10
11 10 8 12 12 12 15 16 15 15 14 14 14 12 11 11 8 7 8 7 7 7 7 7 7 8 7 8 12 15 20 18 15 4 15 13 9 9 11 11 10 10 10
11 11 9 11 13 16 15 15 16 18 18 15 14 13 14 9 11 9 9 6 9 8 8 8 8 8 7 7 11 16 18 20 10 15 15 16 12 10 12 11 11 11 10
13 10 10 12 15 13 11 13 16 18 18 17 17 15 16 15 12 12 12 10 10 9 8 9 9 8 8 12 10 13 18 17 16 16 12 15 13 13 13 11 11 11 10
13 10 10 9 11 7 10 8 14 18 18 20 20 21 22 20 8 14 17 12 9 10 9 12 9 9 12 12 14 12 19 22 20 21 20 13 12 15 14 13 12 11 10
14 13 12 11 8 8 11 13 21 15 20 19 20 21 21 26 21 21 22 17 11 13 11 14 11 10 12 13 13 17 18 20 20 23 20 16 13 16 15 13 12 12 11
16 15 16 13 11 13 13 13 13 13 15 13 14 14 17 25 23 18 22 22 19 13 12 13 11 9 9 9 9 10 13 13 14 18 15 14 15 17 16 14 13 12 12
16 15 14 12 12 10 11 14 18 21 21 11 13 12 15 19 25 22 21 21 19 16 12 14 13 10 10 10 9 8 10 12 12 16 19 16 12 17 16 17 15 14 14
16 16 13 12 12 13 13 12 12 9 13 13 10 17 20 22 23 24 23 19 22 21 14 14 15 10 10 8 8 9 9 11 14 13 12 13 13 14 17 17 16 16 16
15 17 16 14 14 14 14 13 14 12 16 14 13 15 21 25 25 23 24 23 21 22 20 16 15 14 11 11 12 13 15 13 12 10 14 13 11 12 15 16 17 16 17
17 16 16 16 16 16 13 14 12 13 12 12 13 17 21 24 24 24 25 21 21 20 23 19 18 16 12 12 16 13 14 13 14 15 17 15 13 14 16 18 18 19 22
16 15 14 14 14 15 15 16 16 18 16 13 17 20 18 22 24 23 26 25 24 23 22 22 17 15 18 16 13 12 11 9 10 12 18 19 18 15 16 17 17 16 21
16 14 13 13 14 15 15 17 17 18 18 19 23 21 25 20 22 22 27 26 27 22 24 24 21 19 23 19 12 11 8 8 11 12 13 13 13 20 17 18 20 15 21
11 11 12 13 13 15 13 13 15 19 18 20 21 20 17 21 26 23 25 28 27 26 23 25 25 22 23 20 17 12 5 6 4 6 10 14 13 16 19 15 14 16 18
9 9 9 9 8 11 11 13 15 16 17 17 18 20 18 18 17 25 25 26 27 30 27 26 26 23 24 22 20 20 14 9 2 1 6 6 8 12 16 13 13 12 15
8 5 7 7 10 12 14 12 11 17 16 15 17 18 18 17 17 21 25 26 27 28 28 28 27 27 27 27 20 16 13 12 8 5 5 6 5 8 13 10 8 10 10
8 5 4 8 9 7 6 8 11 14 15 16 16 13 12 15 16 18 23 25 26 26 26 28 26 28 26 25 20 19 15 12 10 9 6 9 6 3 8 6 6 11 8

GFSSE_850_spd_003.txt.gz
Wind_Speed
19 20 21 22 21 20 18 18 17 16 15 15 14 14 14 14 13 13 13 11 11 12 11 10 11 10 7 7 7 7 7 9 13 14 14 15 18 17 16 14 14 16 17
20 20 21 22 22 20 18 16 16 15 15 14 13 12 13 11 12 12 12 11 11 12 11 11 10 11 8 7 7 10 10 14 15 16 15 17 17 18 17 12 13 15 17
21 18 19 21 21 19 16 15 14 14 13 13 12 10 10 10 10 10 11 10 9 9 9 10 8 8 7 8 10 11 14 16 16 14 13 14 15 13 14 10 11 15 17
17 17 19 20 20 18 15 13 12 12 12 11 10 9 8 9 9 9 8 8 8 8 8 8 7 5 7 8 11 13 15 16 17 18 15 13 12 13 12 9 12 15 15
13 17 20 21 19 17 15 13 12 12 12 11 10 8 7 6 7 7 8 5 6 6 7 6 6 5 5 7 10 14 15 15 18 15 12 10 5 11 11 12 14 15 14
12 19 21 22 20 18 15 13 12 12 11 10 9 8 7 6 6 5 6 6 5 6 5 5 5 4 6 8 10 14 14 18 18 15 13 9 7 11 12 12 15 14 14
14 14 15 20 20 18 16 13 12 13 12 10 9 8 6 6 5 5 5 5 4 5 5 5 5 4 6 9 11 16 15 13 15 12 12 8 8 10 14 14 14 13 12
14 13 11 14 18 18 15 13 13 12 12 11 9 8 7 6 5 5 5 4 4 4 5 5 6 5 6 8 11 17 17 12 12 10 10 7 8 10 12 13 12 12 12
11 10 11 12 16 16 15 13 12 12 12 12 11 9 8 6 5 5 6 5 3 4 4 6 6 6 7 8 10 16 18 15 13 13 12 6 8 10 11 11 11 11 12
9 8 9 12 14 16 16 14 12 11 11 11 12 11 9 8 8 7 6 5 4 4 4 6 6 6 7 7 9 17 20 16 9 11 12 9 7 10 11 11 11 11 11
9 5 9 12 13 13 14 14 13 12 13 14 13 11 10 10 8 7 6 5 4 4 6 7 7 7 8 6 8 17 22 18 14 19 13 10 9 9 10 11 11 11 11
14 12 8 12 12 13 14 13 12 11 13 14 12 10 12 10 10 9 7 6 6 5 6 7 7 7 9 7 8 16 24 20 15 7 14 13 9 7 9 10 11 10 10
16 15 10 12 10 12 13 14 14 13 13 13 10 11 12 15 13 12 8 6 7 6 6 8 9 8 9 9 8 12 19 23 16 13 14 14 11 10 10 10 11 11 10
20 15 14 11 12 15 16 17 15 14 13 14 14 15 15 16 13 12 9 11 11 8 8 9 10 9 11 10 9 6 14 23 17 11 15 10 11 10 11 12 12 11 11
20 18 15 13 14 15 14 15 13 14 15 12 15 17 19 19 24 22 14 15 14 11 9 9 10 9 11 12 12 11 12 21 21 20 18 16 11 12 13 14 13 12 12
18 20 18 14 13 11 10 10 12 15 14 12 17 14 18 21 22 23 22 17 20 15 13 10 10 11 10 10 12 10 15 16 18 21 21 15 16 14 16 17 15 13 12
23 20 17 15 12 10 8 8 11 11 12 14 17 18 18 20 21 25 26 20 17 20 17 13 12 10 8 7 6 8 8 7 13 16 18 15 14 16 19 19 17 15 15
23 20 18 17 14 12 11 8 8 10 14 15 14 16 18 21 18 20 22 24 18 20 18 15 12 11 10 8 6 7 5 6 6 9 12 14 15 17 20 20 19 18 17
19 18 17 16 15 13 12 10 10 12 16 15 14 14 12 15 17 18 21 20 20 17 20 17 13 13 11 9 7 3 7 8 9 10 14 16 14 18 17 19 20 19 18
19 17 16 17 14 12 12 13 14 13 14 15 18 17 14 18 20 20 18 21 20 18 20 21 16 15 13 12 10 5 5 10 9 10 12 14 15 14 15 16 21 22 19
25 22 20 18 15 13 14 12 13 14 14 16 16 17 19 17 21 23 22 21 23 22 22 22 18 17 18 13 9 6 6 9 10 10 16 20 20 19 18 18 22 23 22
25 18 16 15 15 12 12 11 14 16 19 20 19 20 20 23 25 26 24 22 23 25 23 21 24 18 18 17 11 6 4 9 12 12 13 16 21 22 22 20 23 26 25
22 16 9 8 8 7 9 12 14 16 18 19 20 20 21 22 22 24 24 23 24 25 25 24 24 24 20 21 18 10 5 5 6 10 15 13 16 19 21 24 21 24 28
17 7 4 4 6 4 4 9 14 15 15 18 20 20 20 21 21 19 22 23 23 25 26 24 23 26 25 22 19 17 15 10 3 4 10 9 11 16 19 19 19 19 20
7 10 6 7 3 2 6 10 10 14 15 14 16 18 18 16 18 17 17 21 23 25 25 24 23 24 27 25 22 19 16 16 17 12 13 7 9 13 15 14 15 17 18
11 18 13 9 4 5 6 4 8 10 16 17 14 18 13 10 13 15 15 19 22 23 24 26 25 25 26 24 22 24 20 12 14 10 16 9 10 9 11 14 14 15 14

GFSSE_850_spd_006.txt.gz
Wind_Speed
25 24 23 23 23 23 23 21 21 20 18 16 16 15 15 16 16 15 15 14 14 14 12 11 10 10 9 7 8 9 8 13 14 15 15 16 16 16 15 14 15 16 18
26 25 24 24 23 22 21 20 19 19 19 17 15 15 14 14 15 15 14 14 14 13 13 12 10 10 8 7 7 9 10 14 15 14 16 16 15 16 14 12 14 16 17
22 25 24 24 23 21 19 19 18 17 17 17 15 14 13 13 13 13 12 12 12 13 13 13 12 9 9 10 11 11 14 16 15 14 14 13 15 13 13 11 15 16 15
23 23 25 24 22 20 18 17 17 16 15 15 15 14 12 11 12 12 10 10 11 11 11 11 11 10 9 11 13 14 16 16 15 14 13 12 11 12 10 11 15 15 15
23 22 24 24 22 19 17 17 16 15 14 13 13 13 12 10 10 10 10 8 8 10 9 9 9 9 9 11 14 16 16 16 17 16 14 9 9 10 10 12 14 14 15
20 21 23 24 22 20 17 17 16 15 13 12 11 12 12 11 9 8 7 8 6 7 7 7 7 8 11 11 15 16 15 17 15 14 13 9 8 10 11 13 14 13 14
18 21 24 25 23 20 18 16 15 15 13 12 11 10 10 10 9 8 7 7 6 5 6 6 7 9 11 12 14 16 18 18 14 11 11 9 9 10 12 13 13 13 14
15 20 22 23 23 21 18 16 15 14 13 12 11 10 9 8 7 7 7 7 5 5 5 6 7 8 11 13 14 17 18 15 14 12 11 8 8 11 12 13 12 13 13
13 16 19 21 21 19 17 15 15 14 13 12 11 10 9 7 6 6 6 5 5 5 5 6 7 7 10 12 14 18 17 14 14 13 12 9 9 11 11 12 11 11 12
13 13 15 19 21 20 18 16 15 14 13 12 12 10 9 8 7 7 7 6 4 5 5 6 7 6 7 11 14 18 19 17 13 15 14 10 9 10 11 12 12 11 12
14 13 15 17 18 19 18 17 15 15 15 15 14 11 10 9 8 6 5 4 4 5 6 6 7 6 8 8 11 19 22 19 13 13 15 11 9 9 10 11 12 12 11
19 15 16 19 18 19 19 18 17 16 16 15 13 12 13 11 11 10 8 6 6 4 5 6 7 7 8 8 9 16 23 20 14 9 11 11 9 10 10 10 12 12 11
16 16 15 17 18 18 19 19 18 16 15 15 14 13 13 13 12 12 8 5 5 6 5 7 8 8 7 9 8 13 17 20 17 10 13 14 12 10 11 10 11 12 12
19 16 14 14 15 14 16 17 16 15 15 16 14 14 15 15 12 13 9 7 6 8 8 8 8 9 9 10 10 9 16 22 20 16 14 14 14 13 13 11 12 12 12
22 16 16 14 14 13 15 16 15 14 14 16 16 16 16 15 16 16 14 9 8 9 10 8 9 11 10 11 10 11 11 19 24 21 19 19 15 14 13 14 13 14 13
23 21 18 16 13 13 13 14 16 15 14 16 17 16 18 20 19 20 22 20 13 13 13 13 9 11 10 12 12 10 11 15 23 20 18 18 17 15 14 15 15 15 14
23 22 20 16 12 11 11 12 14 13 14 15 14 15 15 19 21 24 23 22 16 12 16 15 13 11 10 12 10 11 10 14 19 20 21 21 22 17 18 17 17 16 16
24 22 21 18 14 13 12 10 12 13 14 14 11 13 15 13 17 21 21 21 19 17 17 18 16 14 13 11 9 10 9 8 15 15 17 20 21 18 17 19 19 18 18
24 24 21 18 14 14 11 8 9 9 11 13 12 12 13 14 13 18 19 17 17 18 18 18 17 15 15 13 11 8 8 8 8 10 13 18 17 15 16 17 21 20 20
25 26 23 19 18 14 9 10 11 11 13 15 16 15 16 15 15 18 19 18 15 17 18 20 19 16 15 13 13 10 7 10 9 11 13 13 15 14 16 19 21 21 22
27 27 26 23 16 15 11 13 13 13 13 14 16 16 18 18 17 18 18 18 18 18 21 20 19 18 18 16 15 12 9 9 9 11 14 13 15 16 17 20 19 20 25
28 31 26 17 16 14 13 14 14 12 15 16 19 20 23 21 19 19 21 21 20 21 22 22 24 23 20 21 16 11 8 12 11 10 12 12 16 18 19 19 22 21 25
30 21 27 15 12 11 11 11 11 12 15 16 19 20 20 23 22 22 23 22 22 22 23 23 25 25 22 22 21 12 7 7 8 9 11 11 13 16 19 20 23 22 23
20 20 5 11 10 9 7 8 8 9 10 11 15 16 17 20 21 22 20 19 21 22 24 24 24 23 25 21 22 20 10 6 6 6 5 5 10 16 18 21 21 21 23
16 23 15 13 10 6 4 4 5 9 10 14 14 14 16 17 17 23 23 19 19 22 23 24 26 26 25 25 24 23 22 17 13 10 7 7 13 16 17 18 18 19 20
17 18 15 12 6 4 1 1 4 10 12 11 7 9 13 10 11 16 18 17 16 20 23 25 25 24 22 24 25 23 21 21 18 14 14 9 15 20 17 16 16 16 17

GFSSE_850_spd_009.txt.gz
Wind_Speed
25 25 26 28 27 25 21 19 18 18 17 17 16 16 16 16 15 15 14 14 14 13 10 10 9 9 10 10 13 11 11 15 14 13 14 15 15 15 13 13 14 15 18
29 28 27 27 27 25 23 20 19 19 18 17 16 16 15 15 15 14 14 13 13 12 10 9 9 8 8 9 10 10 13 14 14 13 15 17 15 14 13 12 16 15 16
29 29 28 27 26 26 25 23 21 19 18 17 16 15 15 15 15 13 13 12 12 12 11 10 9 7 7 9 10 12 14 15 14 14 13 15 14 12 13 13 15 15 14
28 29 29 28 27 26 24 23 22 20 18 18 17 15 14 15 15 14 12 11 12 12 12 11 9 8 9 11 13 15 16 15 15 14 12 12 12 12 12 14 14 14 13
26 27 28 28 25 25 24 22 21 20 18 17 17 16 15 14 13 12 12 10 9 11 11 10 9 9 10 11 14 16 16 15 14 14 11 9 11 10 11 13 13 14 13
26 25 27 27 25 23 22 21 20 19 18 16 15 15 15 14 12 11 10 11 10 8 9 9 9 9 10 11 14 15 15 15 15 14 11 9 7 8 11 12 12 12 12
25 25 27 27 25 22 21 20 20 18 17 15 13 13 14 13 11 10 9 9 9 8 7 7 8 10 11 12 15 15 14 16 14 12 9 8 8 8 10 12 11 12 12
20 24 27 27 24 21 20 20 19 18 16 15 13 12 12 12 10 9 8 7 7 7 8 6 8 10 12 12 15 14 17 16 11 10 10 8 8 8 11 11 11 11 12
16 22 26 26 24 21 20 19 18 17 16 15 14 13 11 11 10 9 8 6 5 4 5 7 7 10 13 12 14 16 17 14 12 11 9 8 7 9 10 10 10 10 11
13 17 21 24 23 22 20 19 18 17 16 16 14 13 12 10 10 9 8 6 5 5 4 5 7 6 11 13 13 17 16 15 12 12 11 8 8 9 9 10 9 10 10
16 16 19 24 24 22 20 18 18 17 17 16 15 12 11 10 9 9 8 6 4 4 5 5 6 6 8 12 14 16 18 15 14 12 12 9 9 10 10 10 10 10 11
17 16 18 21 23 23 22 21 20 19 18 16 14 13 12 11 10 10 9 7 6 4 5 5 7 7 8 9 12 17 20 19 15 11 13 10 9 11 10 10 11 11 11
17 17 17 20 21 24 24 22 21 19 18 16 14 15 14 13 13 12 9 8 8 6 5 6 7 7 7 10 9 12 19 21 18 12 13 11 10 12 11 11 12 12 12
18 14 13 16 20 21 20 20 19 19 17 15 15 15 15 15 15 14 13 10 7 6 7 9 7 8 8 9 10 12 17 22 22 17 15 14 15 14 11 13 13 13 13
20 17 14 14 17 17 18 19 19 18 16 15 17 17 16 15 16 17 16 14 9 7 9 9 8 8 9 9 10 13 16 20 23 21 17 16 16 16 15 15 14 14 14
22 19 15 14 14 15 16 17 17 16 15 17 19 20 19 18 18 17 18 18 15 11 11 12 10 9 10 10 11 13 13 17 23 25 20 18 16 17 17 16 16 16 15
25 18 17 15 14 13 14 15 16 18 18 17 18 20 20 20 21 21 22 23 21 17 13 15 13 11 11 12 12 14 15 16 19 23 26 23 14 20 18 16 18 18 17
30 23 17 17 14 12 12 14 15 16 18 17 17 16 16 16 18 22 23 25 22 20 17 15 17 15 12 11 12 13 12 14 17 20 20 23 24 25 20 20 20 20 18
24 24 19 18 14 13 12 13 14 15 15 14 15 17 15 17 15 17 20 21 20 20 20 18 19 17 16 14 14 14 13 11 10 15 20 19 20 19 21 20 21 22 20
24 24 23 17 15 14 13 14 14 15 15 16 18 19 19 18 17 16 16 18 18 19 19 21 21 19 16 15 17 15 13 11 12 12 14 15 16 18 18 18 20 22 22
11 23 26 21 13 16 16 16 16 19 18 19 19 17 18 19 18 18 18 20 19 19 19 21 21 21 17 16 17 14 14 11 13 13 13 14 14 16 18 18 19 20 22
25 20 14 17 17 20 17 18 17 19 20 21 22 21 20 21 21 21 21 20 19 18 19 20 22 22 20 19 18 18 11 13 14 14 15 16 14 15 17 17 18 20 21
21 19 13 25 15 16 17 19 18 20 22 23 23 21 23 24 23 20 20 19 19 21 20 22 24 25 24 21 22 11 7 7 14 16 16 16 15 14 13 16 19 21 23
18 15 12 32 23 13 15 14 17 19 21 22 21 20 20 21 23 20 21 21 20 21 23 22 25 25 26 23 22 24 13 8 8 8 13 15 15 12 11 14 18 20 21
15 19 17 11 12 9 14 13 14 12 15 18 18 18 16 17 19 19 21 21 19 20 21 22 25 25 25 25 23 27 24 12 10 8 9 13 13 13 10 11 14 17 18
23 11 19 15 7 12 9 7 8 9 11 13 9 9 9 9 13 18 19 21 19 17 21 23 25 26 26 24 27 27 26 25 22 21 18 17 16 16 10 10 13 16 16

GFSSE_850_spd_015.txt.gz
Wind_Speed
21 20 21 22 21 19 17 15 13 13 13 13 13 12 13 13 13 13 12 12 11 12 8 9 8 8 8 9 9 6 9 9 9 11 12 12 12 13 10 11 15 14 14
24 22 23 22 21 19 16 14 13 12 12 12 12 12 12 12 11 11 12 12 11 10 8 7 7 9 8 9 8 8 11 10 10 11 12 12 11 9 10 14 16 13 14
23 24 24 23 21 19 17 15 13 13 13 12 12 12 12 11 11 10 11 11 10 8 8 8 7 7 8 10 9 11 11 10 9 13 12 11 10 8 12 14 12 12 13
23 25 26 25 22 20 18 15 14 14 13 12 12 12 12 11 10 10 10 9 9 7 7 7 6 6 8 9 10 13 12 12 12 12 11 10 9 10 11 12 11 11 13
23 23 25 23 22 20 17 16 15 14 13 12 11 11 11 10 9 8 7 8 8 8 7 6 5 5 8 9 11 13 12 13 12 11 10 9 11 9 11 10 11 11 13
23 22 22 21 20 19 18 16 15 13 12 11 10 10 10 10 9 8 7 7 8 9 8 6 5 6 8 10 13 14 13 13 11 11 9 9 10 10 10 9 9 10 12
24 23 21 20 19 18 17 15 14 13 12 10 9 9 10 10 9 8 7 7 7 7 8 6 6 7 8 12 13 14 13 12 12 9 9 10 9 10 9 8 9 10 10
22 23 22 22 20 18 16 16 14 14 12 11 10 9 9 9 8 7 6 6 5 6 7 7 7 8 9 12 13 13 12 12 12 9 7 9 8 10 9 8 9 9 10
21 23 23 22 20 17 16 16 14 14 13 12 11 10 10 9 9 8 7 7 8 7 6 7 8 9 10 11 13 13 12 12 11 9 7 9 9 10 10 9 8 9 9
19 21 23 22 21 18 17 16 15 14 13 12 11 11 11 11 10 9 8 7 6 6 7 8 8 9 10 11 13 13 14 13 10 8 10 9 10 11 11 9 9 9 9
18 18 19 20 21 18 16 15 16 16 15 12 13 12 12 12 10 10 9 8 7 7 7 8 9 8 8 10 12 13 15 15 12 11 11 10 10 11 11 10 9 9 10
18 18 19 21 22 20 18 16 16 17 18 17 16 15 14 13 12 11 10 9 7 6 7 7 9 9 10 11 12 14 18 16 14 12 14 12 12 12 12 11 10 10 11
15 17 17 20 22 23 21 18 17 17 18 19 18 17 15 14 14 12 12 10 9 7 6 7 8 10 11 12 13 16 17 19 17 14 13 13 12 12 14 12 12 11 11
18 15 15 17 21 22 20 18 15 15 16 16 16 14 13 13 15 15 13 12 11 10 9 7 8 10 12 12 14 15 17 20 21 18 16 14 16 12 14 14 12 12 12
17 14 13 14 17 18 19 18 17 16 17 15 15 14 17 21 27 18 15 14 12 12 10 9 9 10 12 13 15 17 17 17 20 22 21 15 16 15 14 14 13 14 14
16 14 11 10 13 16 15 14 14 15 14 16 16 15 17 17 17 19 15 16 16 14 12 9 9 11 12 14 16 17 18 17 17 21 24 20 18 17 16 16 16 16 15
15 12 10 8 9 10 11 10 11 13 15 16 18 17 16 18 20 19 16 16 18 18 18 14 12 13 14 14 16 17 18 19 17 19 22 24 21 18 19 18 19 18 15
11 9 9 8 7 6 7 5 9 10 12 15 17 18 17 17 18 19 19 19 20 22 23 22 18 18 17 17 16 18 18 19 19 18 19 23 25 21 21 20 20 19 18
8 6 8 8 8 9 9 7 7 9 10 10 13 15 16 17 17 18 19 22 22 24 26 25 25 22 20 19 19 17 18 19 19 20 20 20 25 27 24 23 18 20 19
16 10 14 9 8 10 11 8 7 9 10 11 11 13 15 16 18 21 21 20 22 25 27 28 28 23 23 21 20 20 19 18 17 17 16 18 21 22 24 24 24 23 21
17 17 26 16 19 9 9 10 9 8 10 14 15 18 20 22 22 23 25 26 24 25 24 24 26 26 23 24 20 20 20 18 17 17 16 16 21 21 20 20 20 22 23
10 11 14 21 19 6 5 9 11 11 12 15 18 19 20 22 24 25 27 28 27 26 23 21 24 25 22 21 18 16 11 18 20 18 18 16 16 18 18 17 19 21 21
8 7 9 20 11 1 7 12 14 12 14 16 20 20 20 20 20 21 26 27 27 25 27 25 25 26 20 19 21 15 8 10 11 19 19 17 18 19 17 16 17 19 20
3 2 1 10 18 10 11 10 7 8 12 17 20 20 19 18 17 20 20 22 27 25 25 28 24 25 24 19 22 21 17 9 8 6 14 17 17 18 17 17 17 18 20
0 5 4 7 14 11 6 7 7 10 11 14 15 15 13 12 13 13 17 20 21 21 20 23 23 25 23 22 21 17 22 22 11 8 5 9 16 17 17 18 17 16 18
2 5 7 10 8 5 1 3 6 7 7 10 11 12 12 12 12 10 12 18 17 18 20 21 21 23 24 24 21 18 21 19 22 14 10 6 6 10 10 13 17 18 19

GFSSE_850_spd_021.txt.gz
Wind_Speed
16 19 20 21 18 15 14 13 12 11 9 8 8 9 9 11 11 9 9 10 10 8 7 6 6 4 4 4 6 5 7 7 9 10 11 11 11 12 15 16 15 9 11
16 18 22 22 18 16 14 13 11 11 9 8 8 9 9 10 8 8 9 10 9 6 6 4 4 4 2 4 4 6 7 8 10 9 10 11 10 11 17 16 13 9 10
16 19 23 22 19 16 14 13 11 11 10 9 9 9 9 9 7 7 9 9 7 5 4 3 4 4 4 3 4 9 8 9 10 12 14 9 7 11 11 13 9 11 10
16 20 21 22 19 16 14 12 11 11 11 10 9 9 8 7 7 7 7 6 5 4 4 4 3 3 3 5 5 8 9 9 16 12 12 6 8 11 9 7 7 9 10
17 19 21 22 19 16 14 12 11 10 10 9 9 8 7 7 6 6 5 6 5 4 3 3 2 2 4 5 7 8 8 11 14 14 4 13 3 5 8 7 9 10 11
17 18 19 20 17 14 12 11 10 10 9 8 8 7 7 6 6 5 5 4 4 4 3 2 2 2 3 6 7 8 8 11 12 9 9 4 13 2 5 9 7 9 10
17 15 18 17 15 13 10 10 10 9 9 9 8 8 7 6 4 5 4 3 4 4 3 1 1 2 3 5 8 9 8 10 9 6 6 5 5 5 4 7 6 8 8
14 11 17 17 13 11 10 10 9 8 8 8 8 7 7 6 4 4 3 4 3 3 2 1 1 2 3 5 7 8 7 10 7 6 3 5 5 7 6 6 6 7 7
13 12 11 14 15 13 11 9 9 8 7 6 6 5 6 5 5 4 3 2 3 3 3 3 3 3 3 7 6 7 8 7 8 4 6 8 7 8 6 5 6 6 6
15 12 11 11 11 12 13 11 10 9 8 7 7 7 6 4 4 3 1 1 3 3 3 4 4 4 6 7 6 7 8 8 10 7 5 9 9 7 7 7 5 6 6
13 13 14 15 13 12 11 12 12 11 9 9 8 7 4 2 4 5 4 6 5 4 5 5 6 7 7 8 9 8 9 7 7 8 13 11 10 9 9 7 6 6 7
14 14 13 11 13 14 14 13 11 12 9 9 6 6 5 5 7 6 6 9 7 7 7 6 7 9 8 7 8 10 11 8 12 6 10 9 9 9 10 9 6 6 7
12 14 13 15 13 12 11 10 11 12 14 14 12 9 10 13 10 7 10 4 5 9 8 10 7 10 10 9 7 8 8 10 13 9 16 11 13 12 10 10 8 5 7
14 14 15 15 14 13 11 10 10 10 14 15 14 11 12 14 15 14 9 11 14 13 9 9 11 9 12 10 9 11 11 12 11 10 15 13 14 13 11 11 10 8 9
13 12 11 11 14 16 17 12 10 19 20 10 11 16 16 14 16 14 12 12 21 18 17 19 21 10 11 10 12 12 13 13 16 16 12 15 15 14 14 13 14 12 14
13 12 11 12 13 14 13 13 12 14 8 2 9 13 14 17 18 20 20 24 27 20 14 24 14 10 10 9 10 12 14 15 15 10 14 12 17 16 16 18 16 19 18
14 14 13 12 11 12 12 12 11 10 9 11 12 13 12 15 17 17 19 20 15 22 21 24 12 10 8 12 12 10 11 14 16 15 16 14 18 19 18 20 21 22 20
16 16 15 14 13 13 12 10 9 9 10 10 12 16 17 16 15 17 13 14 17 16 18 25 15 13 13 12 12 14 15 11 15 18 18 15 16 21 19 20 25 24 24
16 18 18 13 10 11 9 9 9 10 8 10 11 13 17 16 16 17 15 19 16 18 19 17 16 17 15 13 14 14 15 15 15 16 18 18 19 21 21 25 21 21 26
14 16 19 13 13 12 10 9 7 8 11 11 11 13 13 14 17 20 21 19 21 19 17 18 18 19 15 15 16 17 16 16 14 16 19 19 20 22 23 22 19 24 27
12 15 14 15 15 9 8 5 9 11 11 11 10 17 18 17 17 20 19 19 21 24 21 20 19 22 20 16 16 14 17 19 19 18 17 16 19 20 21 25 21 21 23
14 13 12 16 14 12 12 4 8 6 7 9 10 13 13 14 16 19 21 23 23 24 25 27 24 25 25 23 18 15 18 18 20 20 18 17 18 17 18 22 24 24 21
11 13 11 11 15 17 14 9 10 6 7 6 5 7 9 12 15 15 17 20 21 24 25 26 27 26 23 19 17 15 11 14 12 11 14 15 15 17 16 15 19 17 16
10 10 11 13 14 13 13 15 8 6 3 5 5 9 12 10 15 12 15 17 19 19 24 25 23 22 23 20 18 16 17 12 5 7 8 13 13 14 13 13 14 14 11
10 9 8 14 14 11 8 6 8 1 4 3 4 8 11 15 10 17 14 14 16 18 17 21 22 22 19 21 23 16 16 15 15 8 8 8 5 8 10 9 7 10 12
10 10 12 17 17 8 6 7 6 8 3 1 5 8 10 11 16 14 13 12 13 16 16 14 17 19 19 17 22 19 18 14 15 14 15 8 6 5 6 16 11 9 14

GFSSE_850_spd_024.txt.gz
Wind_Speed
18 22 20 20 18 17 16 14 13 11 11 11 11 10 11 12 10 9 10 10 10 8 7 6 5 4 4 6 6 7 7 8 9 10 11 13 14 17 18 18 12 10 12
17 21 21 20 18 17 15 13 12 11 10 10 11 11 11 11 9 9 9 10 9 7 6 6 4 4 4 5 4 7 7 9 10 11 10 12 15 15 15 13 13 9 12
15 22 22 19 17 15 14 12 11 10 9 9 9 9 10 10 8 8 9 9 8 6 5 5 5 3 3 5 5 7 9 11 11 15 14 9 11 13 12 14 6 10 11
18 23 23 20 17 15 13 11 10 10 9 9 9 9 8 8 8 7 8 7 5 5 5 4 4 4 3 5 8 7 12 13 12 15 16 5 9 9 9 8 7 10 10
19 18 23 19 16 14 12 10 9 8 8 9 8 9 8 7 8 7 7 6 4 4 4 4 4 4 4 6 9 9 14 13 9 7 18 13 2 6 8 9 9 10 10
20 17 22 19 15 13 11 10 9 9 8 8 8 8 8 8 7 7 6 6 6 5 5 4 4 4 6 7 9 9 16 14 11 10 8 6 1 4 5 9 9 9 8
26 13 18 17 15 13 10 10 9 8 7 7 7 7 8 8 7 6 6 7 6 6 6 4 3 4 6 8 10 10 15 14 14 13 6 4 4 3 2 6 8 7 6
18 14 14 16 14 12 10 10 9 8 6 5 5 6 7 7 7 6 5 4 6 6 6 5 5 4 6 8 9 11 13 15 6 5 5 6 3 2 3 5 6 7 7
9 6 16 16 15 13 11 9 9 8 7 6 6 6 6 6 5 4 4 3 3 4 4 5 5 6 7 8 9 9 12 12 5 10 7 5 5 4 5 5 6 7 6
14 4 7 14 14 12 12 10 8 7 7 6 7 7 7 5 2 1 1 3 2 3 4 5 5 6 7 9 11 10 10 11 11 7 5 4 4 4 5 6 6 6 6
11 10 7 8 9 11 9 9 9 9 8 7 6 5 4 4 2 3 3 3 5 3 3 5 6 7 8 10 10 12 12 13 9 7 8 7 5 5 7 6 6 6 6
14 12 11 11 11 11 10 10 11 10 9 6 5 5 7 4 11 7 5 5 7 6 4 5 6 8 8 7 10 12 11 14 8 12 8 8 7 6 7 8 6 6 6
15 16 12 7 14 14 13 12 12 11 9 8 9 8 9 9 7 5 10 9 6 5 3 3 7 10 12 11 10 11 8 12 11 12 10 7 5 8 8 9 8 7 7
18 15 14 13 14 10 14 16 14 13 11 14 15 17 15 13 13 13 6 7 6 9 9 13 12 6 10 9 11 11 12 10 12 10 11 10 7 6 11 11 10 9 7
18 15 16 14 14 13 19 15 13 9 12 13 16 18 16 14 13 15 18 16 10 13 14 16 16 12 16 15 13 15 13 15 14 16 11 8 9 8 11 11 12 13 12
12 13 15 11 14 17 18 18 10 13 14 16 20 10 10 14 18 19 16 19 20 20 21 20 18 18 18 14 16 15 16 15 15 18 19 14 12 12 12 13 14 15 15
14 15 11 9 9 11 16 16 16 9 9 7 11 13 15 16 18 20 17 18 20 15 18 12 15 6 28 31 22 15 11 13 14 13 15 16 16 14 15 13 14 17 19
14 16 13 10 11 11 11 13 10 9 12 9 15 12 13 15 19 19 18 12 16 12 13 14 22 23 23 22 22 17 14 12 14 12 15 16 17 14 14 15 15 17 20
17 14 18 16 13 12 8 9 10 12 11 6 7 13 17 17 18 18 20 12 15 21 17 16 17 19 20 21 20 16 20 15 12 15 17 15 16 16 17 17 20 16 20
18 17 20 17 9 9 8 4 4 7 7 8 14 11 9 13 18 17 22 23 20 22 23 21 19 16 20 22 17 14 15 15 15 16 16 18 17 17 19 15 18 21 22
16 14 12 14 13 11 5 5 7 8 8 9 12 19 13 14 18 21 23 23 22 25 23 21 16 19 25 26 20 17 11 15 19 20 21 22 18 16 18 25 26 24 24
10 11 12 15 13 11 11 3 5 8 5 10 10 13 12 11 13 17 20 22 22 24 23 25 23 20 20 23 18 14 16 20 24 29 26 22 15 15 14 14 22 27 24
11 13 13 10 10 10 6 8 8 7 7 7 6 4 7 13 18 17 18 19 20 21 23 24 23 27 24 23 23 18 9 9 10 15 23 16 13 13 13 14 17 22 24
6 9 10 8 5 11 10 8 9 8 5 6 3 7 12 11 13 16 17 19 19 18 19 20 21 23 25 25 22 20 22 14 5 3 8 8 12 16 14 14 15 17 22
10 9 8 6 6 8 7 8 8 3 4 4 9 9 11 14 9 12 16 19 17 16 17 17 18 20 20 19 20 19 21 18 15 13 5 4 8 6 9 13 11 13 16
11 9 9 12 12 8 7 5 4 4 7 4 7 9 9 11 16 17 13 13 14 16 14 13 11 13 15 16 17 18 21 19 13 17 14 12 6 8 10 10 16 16 17

GFSSE_850_spd_027.txt.gz
Wind_Speed
26 22 19 19 20 19 17 16 15 14 15 15 16 16 16 15 14 14 14 13 11 10 8 8 8 8 9 9 10 10 9 9 10 11 13 13 18 20 18 14 10 16 16
26 24 22 20 19 18 16 15 14 13 13 13 13 15 14 13 12 13 13 12 10 9 8 8 8 8 8 9 10 11 11 12 13 14 12 14 15 16 16 11 11 13 15
27 26 23 21 19 17 15 14 13 12 12 12 12 12 12 11 12 12 12 11 9 8 8 7 6 7 7 7 11 11 12 13 15 16 14 13 14 14 15 11 7 13 16
27 25 23 20 18 16 14 13 12 11 11 11 10 11 10 10 10 10 10 9 8 7 7 7 6 7 8 6 12 13 13 16 17 16 13 11 9 10 11 10 9 13 14
26 24 21 18 16 15 13 12 11 11 10 10 9 9 9 9 9 8 7 6 7 6 6 6 4 6 8 9 12 14 14 14 11 12 11 9 8 8 8 10 11 13 13
22 23 20 17 15 14 13 12 11 10 10 9 9 8 8 8 8 7 7 6 6 6 6 5 4 5 8 10 13 16 14 14 20 16 11 6 5 6 7 11 11 11 10
17 19 19 17 15 13 12 11 10 10 9 9 8 8 8 7 7 6 5 5 6 6 5 4 4 4 7 9 14 16 14 12 13 12 8 3 2 1 4 9 11 8 8
19 18 15 16 15 13 11 11 10 9 8 8 8 8 8 6 5 4 4 4 4 4 4 3 4 4 6 8 13 16 14 14 12 9 10 7 1 1 3 6 9 9 9
15 11 17 15 15 14 12 10 9 9 8 7 8 8 7 6 4 2 3 3 2 4 2 2 3 3 5 8 12 15 14 12 6 15 8 10 5 1 2 6 9 9 9
9 10 14 16 15 13 13 12 10 9 8 7 5 5 5 5 5 3 2 2 1 1 3 4 3 4 5 7 11 14 13 12 8 10 6 12 6 1 2 6 8 9 9
13 10 11 14 12 12 12 11 11 9 8 6 5 4 3 5 3 3 2 2 2 2 2 4 5 5 6 7 9 10 14 14 10 5 4 7 6 2 3 7 8 9 9
12 11 5 6 7 12 11 10 9 8 7 6 6 7 5 6 9 8 7 3 1 2 4 3 4 6 6 7 8 9 12 13 13 6 10 7 8 4 4 8 8 8 9
12 9 7 6 5 10 10 10 9 9 9 9 8 6 6 5 5 7 9 8 5 3 4 4 3 5 7 7 6 9 11 16 13 11 11 11 8 10 7 9 10 10 10
19 13 9 7 7 7 10 9 7 9 10 8 9 8 8 11 12 12 8 10 7 5 7 9 10 9 11 12 10 10 11 17 15 12 16 13 12 11 10 11 13 12 11
21 16 15 13 12 12 11 17 9 16 17 15 13 13 12 14 12 15 14 11 10 10 10 11 14 15 14 12 13 13 13 12 19 17 15 15 14 13 10 11 14 15 13
22 19 15 14 12 13 14 17 13 13 13 13 13 18 12 12 15 16 16 18 17 16 18 22 21 22 18 23 24 14 15 16 18 19 17 17 13 12 12 12 15 15 16
17 13 14 13 11 13 16 14 11 10 11 11 9 12 12 12 13 15 16 17 18 22 19 18 16 16 15 17 21 17 17 17 19 21 21 22 19 16 16 15 16 16 17
16 13 11 7 6 6 3 7 7 10 10 6 7 6 8 10 13 16 15 16 14 16 13 12 13 18 22 22 25 28 21 16 16 18 18 19 20 20 20 18 17 17 16
14 16 14 13 11 9 7 5 5 8 8 3 6 7 7 12 14 13 18 19 15 18 18 15 16 18 19 21 15 23 19 16 20 18 19 16 16 20 22 21 21 18 16
18 19 18 18 15 10 7 6 5 8 8 8 10 11 10 11 18 17 17 19 18 19 21 20 18 16 17 23 18 19 18 20 19 17 19 15 15 17 23 22 21 22 20
20 19 10 14 15 8 9 2 7 8 4 5 8 12 14 19 15 14 17 20 21 23 22 23 24 20 17 21 18 20 21 26 22 18 20 21 19 17 20 23 25 23 21
18 13 11 9 7 9 3 2 10 3 2 7 10 9 8 11 12 17 14 16 19 20 20 22 21 21 20 22 27 21 25 18 18 19 24 24 21 17 20 21 25 27 25
10 11 11 7 7 4 5 5 3 3 5 5 4 5 10 14 15 15 14 17 14 16 17 18 20 22 22 18 20 19 12 13 12 14 25 27 22 18 18 17 18 19 19
7 9 8 4 4 8 9 6 2 3 2 4 3 6 8 8 11 14 19 18 15 15 14 13 14 17 21 22 21 21 22 16 7 3 9 19 20 19 17 15 14 14 16
8 10 6 3 8 11 10 9 7 4 2 1 4 4 7 9 12 16 17 14 12 11 14 12 11 13 17 18 18 21 23 23 22 12 8 9 11 9 8 11 12 12 14
12 13 11 9 15 13 10 7 3 4 3 3 1 5 6 10 15 15 11 10 11 13 12 6 6 6 10 14 16 17 19 18 16 14 15 11 9 4 7 5 5 11 15

GFSSE_850_spd_030.txt.gz
Wind_Speed
26 22 20 20 19 19 18 18 18 17 16 16 17 17 15 14 13 14 14 14 12 11 9 9 9 9 10 11 10 10 11 10 11 11 13 15 18 18 16 15 17 18 16
29 22 20 21 19 18 17 16 16 16 16 15 16 16 14 14 14 15 14 13 11 10 9 8 9 10 10 12 11 11 13 14 13 13 14 16 15 16 16 14 14 16 15
28 24 22 21 19 18 16 15 15 15 16 15 16 15 12 11 13 13 13 11 10 8 8 9 8 9 10 11 13 13 15 17 17 13 14 13 12 12 11 12 13 15 15
27 25 22 20 18 17 16 15 14 14 14 14 14 13 12 12 12 12 10 9 9 8 7 7 8 8 10 12 13 14 14 19 17 18 15 12 11 11 10 11 14 17 15
28 24 22 19 17 16 15 14 13 13 14 14 13 12 11 11 11 10 9 8 7 8 7 6 6 7 10 14 13 15 16 17 17 15 14 11 8 7 8 11 14 14 14
28 24 22 19 17 15 14 13 12 12 12 12 12 11 10 9 9 8 8 7 7 7 6 5 6 7 11 14 14 15 14 11 14 13 10 9 8 5 7 11 13 13 13
28 24 21 18 16 15 14 13 12 11 11 11 11 10 10 9 8 7 6 6 6 7 6 5 5 7 10 15 15 15 15 17 15 11 8 7 5 4 5 11 12 10 11
22 21 19 17 16 15 14 13 12 11 10 10 9 9 9 8 7 6 4 4 5 6 5 4 4 6 10 14 15 15 12 12 12 11 9 8 3 3 4 8 10 9 10
21 19 18 17 16 14 14 13 12 11 10 9 8 9 8 7 7 6 4 3 3 2 3 4 4 5 9 14 16 17 14 10 8 7 8 9 6 4 5 6 9 10 10
18 15 16 16 15 14 14 13 12 10 10 9 7 7 6 6 6 5 4 3 2 1 3 3 3 5 8 12 17 18 17 16 12 13 7 9 7 4 5 6 8 10 11
16 13 16 17 15 13 13 13 11 10 8 7 7 6 6 5 4 5 4 2 0 1 3 4 4 4 6 11 15 16 16 15 13 13 7 10 9 6 6 7 8 10 10
17 14 13 14 14 14 14 13 12 11 9 8 7 7 5 6 4 4 3 3 3 3 3 4 5 6 5 8 11 13 14 14 14 12 8 9 11 7 7 8 8 10 11
12 13 13 13 10 11 14 14 13 11 9 8 8 8 6 6 2 4 4 4 5 7 6 6 7 7 8 8 9 11 10 14 16 14 10 8 11 11 8 10 10 11 11
16 11 12 9 6 4 10 10 10 10 10 5 6 10 6 8 10 10 7 6 8 8 10 8 9 8 9 12 13 10 13 15 16 15 12 11 11 10 12 11 13 13 12
16 13 12 10 9 4 5 9 11 10 10 10 13 13 11 12 10 11 9 10 12 11 13 11 11 10 10 11 14 10 12 16 20 19 17 15 15 13 13 14 15 16 15
19 16 14 11 7 8 5 5 8 14 14 13 13 10 14 9 11 12 11 13 17 20 18 16 16 20 21 20 17 14 18 17 18 21 19 16 17 16 15 15 16 17 18
19 18 16 13 13 12 11 10 6 10 6 9 10 12 14 14 11 10 10 13 16 19 21 23 20 21 23 24 24 19 18 16 19 19 19 20 18 17 16 16 17 19 18
17 19 16 14 12 12 13 13 5 5 10 8 10 10 7 13 11 12 12 12 13 16 16 17 15 11 12 18 18 16 26 16 16 18 19 21 22 22 23 22 21 19 19
18 19 17 15 11 13 9 10 7 5 4 8 9 8 8 7 10 12 14 14 15 16 18 16 18 14 15 18 23 20 19 20 18 16 15 18 19 18 20 22 23 22 20
19 19 18 11 8 8 9 9 9 8 3 8 7 9 9 9 7 12 16 15 15 16 19 20 18 16 16 16 17 17 15 19 20 17 18 18 19 19 19 20 21 24 25
21 21 13 9 8 11 9 11 9 11 9 8 6 9 11 7 8 5 9 10 11 15 16 18 19 20 19 17 17 20 18 19 22 20 20 24 22 19 19 20 21 23 24
22 17 11 11 4 4 4 4 5 12 9 2 5 4 2 4 6 9 12 11 14 15 12 14 17 19 19 17 16 17 18 21 21 22 24 23 23 20 19 18 20 23 24
20 16 12 6 3 5 9 11 14 4 1 2 1 3 5 6 7 11 13 14 17 16 14 13 13 18 19 20 20 16 11 10 12 19 23 24 26 23 20 19 19 19 20
13 10 6 4 3 9 9 8 6 3 2 1 3 5 6 7 8 11 15 15 10 11 10 10 11 13 16 20 20 20 23 12 8 8 9 17 18 22 21 18 17 16 15
9 6 7 4 7 12 11 8 4 2 1 1 2 5 6 9 11 14 14 9 8 9 12 11 9 11 13 15 19 20 18 21 19 17 14 11 10 11 11 12 12 14 15
8 11 10 7 14 14 9 6 4 3 3 3 2 5 7 9 11 13 10 8 8 8 7 5 1 6 9 12 14 16 19 21 22 20 17 14 8 6 7 8 6 8 12

GFSSE_850_spd_036.txt.gz
Wind_Speed
25 21 18 16 14 15 16 16 15 15 15 14 15 15 15 15 13 11 11 11 10 7 7 8 8 8 9 8 9 9 9 9 10 11 14 14 13 12 15 13 15 15 16
26 22 19 16 14 15 16 15 15 15 14 14 13 12 12 13 12 11 11 9 8 6 6 8 8 8 8 8 9 8 10 9 12 13 13 15 13 15 14 12 15 13 13
24 22 20 17 15 14 15 15 14 15 14 15 14 13 12 11 11 11 9 8 8 8 6 6 8 8 8 8 9 10 13 12 12 12 13 13 12 12 13 14 12 13 13
22 22 20 18 16 14 13 14 14 14 14 14 13 12 12 12 12 11 10 8 8 7 7 8 6 6 8 8 10 11 13 13 12 11 10 11 8 9 11 12 11 12 11
23 22 20 19 16 14 12 13 13 14 14 14 12 11 10 12 11 11 9 8 8 7 7 7 7 7 8 10 10 11 12 13 13 12 10 10 8 8 9 12 12 11 11
22 21 20 18 16 14 13 12 12 13 13 13 12 12 12 12 11 9 7 6 6 7 6 6 7 8 9 10 11 12 12 13 13 11 10 10 7 8 9 10 11 11 10
21 21 20 18 16 15 14 13 12 12 13 12 11 11 11 11 10 9 7 6 6 6 5 5 5 8 10 10 11 14 14 12 11 9 8 8 7 7 9 10 10 10 10
21 21 20 18 16 15 14 13 13 12 12 11 10 10 10 10 9 8 7 6 5 6 5 4 4 7 9 11 12 13 13 13 11 7 7 5 5 5 8 9 8 7 8
21 20 19 17 16 15 14 13 13 12 12 11 11 10 10 9 9 8 8 7 7 5 4 6 4 6 9 11 12 12 11 12 10 7 7 6 4 3 6 8 7 6 8
22 20 18 18 16 16 15 14 13 13 13 12 11 11 9 8 8 8 7 6 6 5 4 4 5 5 7 11 12 12 11 10 8 6 6 6 4 3 5 8 8 7 7
23 21 20 19 17 15 15 14 14 13 12 12 12 11 10 9 8 7 7 6 5 5 5 4 5 6 7 9 12 13 13 11 10 7 7 8 8 5 5 7 9 8 8
25 22 20 18 17 16 16 15 14 14 12 12 11 11 10 10 8 7 7 6 4 3 3 3 5 6 8 10 11 13 14 13 12 7 8 7 8 8 6 7 8 9 9
21 21 20 19 18 17 16 15 14 13 12 11 9 9 9 10 8 6 6 6 5 4 3 4 4 5 7 8 10 13 13 14 15 14 12 10 8 8 10 7 8 9 10
21 19 18 19 18 16 15 16 14 14 13 12 10 9 9 10 8 5 5 4 9 6 6 4 3 4 5 7 9 12 13 14 15 16 15 14 11 10 10 10 8 10 10
20 19 17 17 16 14 16 15 16 14 11 12 11 11 14 12 10 12 8 6 8 8 7 7 5 6 5 7 8 10 13 14 16 17 17 18 13 12 10 8 10 11 12
20 17 16 16 13 11 6 10 12 12 12 13 11 10 12 14 13 11 9 8 10 10 9 11 12 12 11 11 13 14 13 17 15 16 18 18 15 14 13 13 11 13 13
18 15 17 16 11 7 11 13 10 13 13 12 15 15 15 13 13 14 12 11 10 11 12 13 14 16 16 17 18 19 20 19 20 15 16 16 18 16 14 15 15 14 15
18 17 16 18 10 8 9 11 12 10 13 11 12 14 13 12 12 14 14 11 11 14 14 13 13 16 17 18 16 16 19 21 21 17 16 18 17 18 17 15 15 14 14
16 16 13 10 11 8 9 13 13 13 9 11 8 9 7 7 7 7 8 11 12 13 14 16 16 16 16 16 18 15 13 16 21 19 18 18 18 18 18 19 17 17 19
18 15 12 9 6 6 5 10 13 13 5 6 5 4 3 5 5 7 9 11 11 13 14 16 17 18 19 17 16 17 16 17 21 25 22 20 19 15 15 16 14 14 15
20 16 11 9 5 8 8 13 9 7 5 5 1 4 2 4 6 8 7 9 11 12 12 14 15 17 19 19 19 19 18 18 18 17 17 17 17 16 16 15 14 14 14
21 15 12 8 5 3 3 2 8 7 8 2 5 3 1 1 4 6 8 9 11 13 15 16 16 17 16 17 18 17 14 15 17 17 16 19 19 17 18 15 16 15 14
18 17 13 9 5 7 8 11 12 8 6 4 1 1 3 5 6 7 9 10 13 14 13 13 15 16 15 15 15 14 5 6 7 12 11 16 15 15 16 13 15 14 13
14 15 18 8 9 14 12 10 6 5 1 1 1 4 6 7 9 11 11 11 11 10 10 11 13 15 14 14 14 16 18 7 1 4 5 7 10 12 15 16 18 15 15
10 11 13 9 14 15 13 9 4 1 2 2 2 5 7 9 10 12 11 9 7 7 9 10 11 11 12 12 12 12 16 17 15 10 9 6 4 1 3 6 12 12 14
18 15 15 12 16 17 14 10 5 2 2 2 4 5 8 9 10 9 9 8 5 6 7 6 6 4 4 7 10 12 14 16 18 17 17 12 9 5 1 2 4 7 9

GFSSE_850_spd_042.txt.gz
Wind_Speed
16 15 16 16 15 14 13 13 13 13 14 15 15 16 14 14 12 11 10 8 7 8 6 6 6 5 5 6 6 7 7 6 8 9 12 10 13 10 13 15 15 9 13
19 16 17 15 15 14 13 12 12 13 13 12 13 13 13 12 11 10 9 9 6 5 4 4 5 5 5 6 6 6 6 7 10 11 10 10 11 10 13 16 12 8 12
18 16 15 14 14 13 13 12 12 12 11 12 12 12 12 11 10 9 9 9 7 6 6 5 5 6 5 6 6 7 8 12 11 11 14 7 8 9 10 12 11 9 9
17 15 13 13 12 13 13 13 12 12 12 11 12 11 11 10 10 9 8 9 8 8 4 6 5 5 5 6 8 9 11 11 9 13 11 7 6 7 9 9 9 8 7
16 14 13 12 11 11 11 12 12 12 12 12 11 11 10 10 10 8 7 7 8 7 6 5 5 5 6 7 9 9 10 9 10 9 9 8 5 6 8 8 6 6 10
15 12 12 12 10 10 10 10 10 11 11 10 9 9 9 10 9 7 7 7 6 6 5 6 5 5 7 8 8 9 9 8 9 6 5 6 6 5 7 7 8 7 8
14 12 13 11 10 8 8 9 9 10 10 9 8 8 8 9 9 7 6 6 7 6 4 6 6 6 7 7 8 9 10 10 8 6 7 4 5 6 7 6 6 6 7
13 12 12 12 10 8 7 7 8 9 9 8 7 8 8 8 8 7 6 7 6 6 5 5 6 7 8 8 9 9 10 11 9 5 5 3 5 6 8 7 6 5 6
13 12 10 11 11 9 8 8 8 8 9 8 7 8 8 8 7 7 7 7 8 7 6 6 5 6 10 8 9 11 9 8 7 5 4 4 2 4 7 7 6 5 5
13 13 13 12 10 9 9 9 8 8 9 8 8 8 8 8 8 7 7 7 8 7 6 6 5 7 10 9 9 9 9 10 7 6 4 9 6 4 6 8 6 4 6
14 14 13 13 12 11 9 8 9 8 8 8 9 10 8 5 6 6 7 7 7 7 7 7 6 7 9 11 10 10 9 6 8 7 6 10 7 4 4 7 7 6 6
15 15 13 11 11 10 9 10 9 9 8 7 8 9 7 9 8 9 8 7 6 6 6 7 7 7 7 8 10 13 10 9 8 8 8 10 8 8 6 7 7 7 7
14 13 13 13 12 11 10 9 11 8 8 12 12 12 11 11 9 7 7 6 7 6 6 5 5 5 8 9 10 10 10 12 10 10 11 11 8 8 9 8 9 9 9
15 13 11 11 10 11 11 10 12 12 12 10 9 11 11 10 11 8 7 6 8 8 7 9 8 8 9 9 10 10 11 11 11 11 12 15 13 10 9 10 11 9 10
14 13 12 11 11 11 12 12 13 14 14 14 14 15 13 12 11 10 8 10 11 11 10 10 11 10 11 10 10 11 11 12 13 12 11 16 16 15 12 11 13 13 10
12 10 9 9 11 13 15 15 15 17 16 17 18 17 16 16 16 14 13 13 9 11 11 9 12 11 9 10 11 11 12 12 13 13 12 14 15 17 17 14 14 13 15
12 11 14 7 11 15 17 18 16 15 15 18 27 21 21 18 16 17 14 13 10 12 13 11 11 12 12 13 14 14 13 14 14 15 15 14 14 16 18 17 15 15 15
12 12 8 10 14 15 21 20 14 16 13 11 12 27 21 18 17 17 16 17 16 14 14 12 11 12 14 13 14 13 15 15 17 17 18 16 13 13 15 18 18 16 17
9 5 7 9 9 11 18 18 15 13 13 8 10 13 14 14 14 16 14 11 14 12 13 13 13 16 13 13 14 14 15 16 16 16 20 20 18 14 14 15 19 18 16
11 13 21 28 6 8 13 17 15 9 10 14 9 11 10 9 9 11 10 11 10 12 14 12 11 11 13 13 13 13 15 15 16 14 15 19 19 17 15 15 15 15 17
14 6 31 7 9 12 12 10 8 4 5 5 5 6 4 8 8 9 8 9 11 10 10 12 12 13 15 13 14 15 17 18 16 15 13 15 16 16 15 14 17 13 12
13 3 6 7 10 7 6 4 6 9 12 11 5 1 2 3 4 4 7 7 10 10 13 13 14 15 12 14 11 11 13 15 15 16 14 14 14 14 13 15 13 12 13
8 7 13 14 12 9 7 11 13 13 11 8 7 3 1 2 3 6 7 9 11 12 10 14 11 13 12 13 13 11 6 11 10 11 15 13 13 14 14 12 14 13 11
6 9 8 13 13 11 9 8 9 5 4 4 5 3 2 4 7 8 9 8 9 8 11 9 10 12 13 15 13 13 15 6 6 7 8 7 11 14 16 12 11 11 12
8 10 9 13 11 15 14 9 5 5 4 6 4 2 3 5 5 5 6 6 7 7 6 7 8 8 9 11 11 11 10 14 11 5 6 7 4 7 10 11 12 13 14
9 9 11 11 13 17 12 7 4 2 5 3 3 1 1 1 2 3 4 5 3 2 2 3 5 5 5 4 6 9 11 9 13 14 9 9 7 4 4 4 5 6 7

GFSSE_850_spd_045.txt.gz
Wind_Speed
14 15 15 14 13 12 11 10 10 11 12 13 12 11 12 11 10 11 12 9 6 7 6 5 5 4 5 6 6 6 6 7 7 11 11 10 12 13 16 14 15 7 11
15 16 15 13 13 12 11 10 10 10 11 11 12 11 10 9 10 9 7 5 5 4 5 4 4 5 5 5 6 6 6 9 11 11 11 10 10 15 14 12 12 7 9
15 15 14 13 11 11 10 10 10 10 9 10 11 10 9 8 7 9 7 6 2 4 4 5 6 4 5 4 5 6 8 11 13 17 16 8 6 11 10 9 8 9 9
13 14 13 13 11 10 9 9 9 9 8 9 10 10 9 8 7 7 6 10 4 4 3 4 5 4 4 4 7 7 11 13 17 16 9 6 5 8 9 8 8 6 7
13 14 9 11 11 10 10 9 8 8 8 9 9 10 9 7 7 6 5 6 7 4 5 3 4 5 4 6 8 8 8 11 12 9 7 9 3 4 7 7 6 6 10
16 13 9 10 10 9 9 10 10 9 8 8 7 7 7 8 7 6 5 5 5 4 5 3 2 4 4 6 7 7 8 11 10 10 6 8 7 2 4 6 6 5 5
12 9 10 10 10 9 8 8 9 9 9 8 7 7 7 7 7 6 6 6 5 4 5 5 5 3 6 5 7 6 8 13 12 5 5 4 5 8 6 7 6 5 5
13 11 13 12 10 8 8 8 8 9 8 7 6 6 7 7 7 6 6 7 6 6 4 4 5 5 6 7 7 7 10 12 9 5 5 6 5 6 7 6 6 5 5
13 14 9 10 10 9 8 8 8 8 8 7 6 6 6 6 6 6 6 6 7 6 5 4 4 7 8 7 7 9 10 9 10 7 6 5 3 4 7 7 6 5 5
13 9 10 12 9 8 7 8 8 7 8 7 5 6 6 7 6 6 6 5 7 7 6 5 5 6 9 9 7 9 10 10 10 4 2 9 10 5 6 7 6 5 5
13 11 13 11 10 9 7 7 8 8 6 8 7 6 7 4 7 6 5 8 7 7 7 7 6 6 9 10 10 10 9 6 9 9 11 11 7 5 5 8 8 6 5
13 12 11 8 9 8 7 8 6 7 6 5 6 10 6 7 7 4 6 9 8 8 8 8 7 6 7 8 8 12 10 9 8 8 11 9 11 10 7 6 8 8 7
13 13 13 12 11 6 9 7 9 8 10 9 12 11 12 14 8 7 8 6 6 7 6 8 7 5 7 10 12 7 9 12 10 9 14 10 11 9 9 7 7 8 8
15 12 11 10 12 11 7 9 9 10 9 10 11 15 13 10 10 11 11 10 9 11 7 13 15 6 7 10 10 15 13 13 13 10 12 14 17 13 11 10 10 9 9
14 11 9 10 12 12 15 15 17 15 17 18 17 13 13 12 13 13 12 11 11 12 10 9 8 11 9 13 10 11 10 13 13 13 14 15 17 17 15 12 12 13 11
12 12 9 12 11 11 13 16 17 17 20 17 15 13 16 16 15 15 14 15 16 12 10 13 14 12 11 12 13 13 15 14 14 16 13 16 16 15 17 16 13 13 12
12 9 1 8 6 10 12 13 14 16 14 17 16 18 18 18 20 17 22 23 21 11 13 14 15 13 16 14 15 15 16 15 14 15 17 17 15 15 15 18 17 15 14
16 19 13 12 14 10 9 11 17 15 15 17 18 17 22 20 19 20 18 18 16 8 12 15 14 12 15 18 20 19 18 18 18 18 18 17 18 15 16 14 16 16 15
15 13 5 11 15 14 4 9 13 12 14 17 15 15 18 20 18 19 19 16 18 16 18 16 11 14 16 17 18 17 16 19 19 19 19 18 20 18 13 14 15 14 17
7 8 11 15 11 13 6 6 12 17 18 10 13 13 10 16 15 13 15 16 15 13 15 13 17 16 12 12 13 17 19 19 19 19 18 17 20 21 17 15 16 14 11
21 12 15 2 7 2 8 7 8 9 3 1 8 9 12 9 8 9 11 11 10 12 12 11 9 12 16 16 14 16 19 21 21 21 17 13 15 18 18 18 19 16 16
13 12 4 4 3 6 11 5 1 5 4 6 7 4 2 5 7 7 8 5 9 11 9 11 16 16 19 16 16 13 11 16 22 19 18 16 14 15 18 18 18 20 15
13 9 12 9 6 7 6 6 8 9 8 3 1 3 2 1 2 4 4 6 10 9 10 15 15 15 12 12 13 12 6 7 14 12 17 18 14 17 17 19 22 16 14
12 11 8 8 7 6 10 4 7 3 2 6 1 3 2 2 3 5 7 7 9 10 16 13 15 14 14 15 17 16 16 12 5 6 11 14 14 19 18 15 17 11 8
9 9 9 10 9 9 9 6 2 4 2 3 3 5 7 9 3 3 5 7 9 10 9 9 9 10 10 12 13 12 13 12 13 8 8 10 8 8 10 13 9 5 5
8 9 11 12 11 12 11 6 2 2 3 1 3 3 3 4 7 2 6 7 6 4 4 5 5 5 6 6 5 7 9 10 10 14 8 11 8 5 4 3 7 5 6

GFSSE_850_spd_048.txt.gz
Wind_Speed
17 19 16 15 15 14 13 12 12 12 13 14 12 11 10 10 10 12 11 11 10 9 9 8 7 7 8 8 7 7 7 8 10 10 12 13 15 17 17 17 14 8 13
18 19 17 16 14 13 12 11 11 12 12 13 12 11 9 7 7 6 7 8 6 8 8 7 7 8 7 8 6 7 8 11 12 13 12 11 13 15 14 13 12 9 10
19 19 17 15 14 13 11 11 11 11 11 11 11 10 8 6 5 7 5 7 8 6 6 7 7 6 7 5 6 7 12 16 17 17 17 9 9 10 11 13 6 8 10
17 17 16 15 13 13 12 11 10 10 10 10 9 9 8 6 5 3 6 8 8 9 5 6 5 4 5 4 7 11 17 17 16 15 10 7 7 7 7 8 9 9 10
19 16 14 14 12 11 11 11 10 9 10 11 10 8 7 5 4 3 2 2 1 4 8 5 4 4 4 6 8 11 15 14 11 15 10 11 1 5 8 8 7 8 10
22 9 10 12 12 10 9 9 9 9 9 10 10 8 7 6 6 5 3 2 2 3 2 3 3 3 5 6 7 10 14 13 14 10 3 5 4 3 2 6 6 7 7
15 9 8 12 12 11 9 9 8 9 9 9 9 9 8 8 6 5 4 3 2 2 2 3 4 4 4 5 6 9 14 13 13 10 6 4 3 7 2 4 5 5 5
15 10 11 13 12 11 10 10 10 10 9 8 8 8 8 9 8 7 5 4 3 3 3 4 5 5 5 5 6 9 14 15 7 8 5 5 4 4 5 5 5 5 5
19 7 7 13 12 12 11 10 10 10 10 9 8 9 9 9 8 5 5 5 5 5 4 4 6 6 8 7 7 10 14 11 7 10 7 7 5 4 6 5 5 5 5
14 3 5 7 9 9 11 10 9 9 10 9 8 8 8 7 5 5 5 4 4 5 5 4 4 6 8 9 8 10 12 10 9 12 7 8 7 9 5 6 6 5 4
6 14 11 9 9 9 7 8 10 10 8 8 8 10 8 5 3 2 3 2 5 5 5 5 4 5 8 10 9 10 12 12 10 6 9 8 7 6 4 6 6 5 5
15 16 13 12 11 10 11 8 5 9 8 6 4 5 2 5 9 8 8 4 6 5 5 4 4 4 6 8 7 9 9 9 6 6 13 10 10 10 8 5 7 7 6
14 17 10 10 13 5 8 9 4 4 4 6 7 11 8 10 5 22 10 2 4 3 1 6 4 5 2 9 8 5 5 8 11 13 10 4 8 7 9 8 7 7 7
12 13 8 8 11 11 11 5 11 13 13 16 9 16 13 11 16 17 14 10 8 5 5 7 13 9 12 12 14 9 7 9 13 12 14 11 9 11 13 11 10 9 9
13 12 11 9 12 10 13 10 13 13 9 9 15 13 14 10 12 13 13 12 11 4 5 6 10 14 10 12 11 8 10 11 11 10 14 9 10 11 13 16 12 11 11
33 17 7 6 11 12 14 15 12 11 12 10 13 14 12 10 12 11 14 12 10 10 14 15 16 10 13 12 12 12 12 11 11 14 15 12 11 14 13 14 16 14 12
21 29 22 10 8 10 10 11 14 17 16 16 16 16 13 13 14 15 14 15 15 19 20 18 16 18 19 15 14 15 15 16 17 16 17 21 18 20 14 12 14 17 14
27 18 8 7 9 7 7 9 12 11 13 13 14 15 13 16 17 15 19 19 15 20 19 27 15 13 14 16 18 19 17 15 19 19 18 17 19 20 19 15 14 12 16
22 17 5 4 7 11 7 10 8 12 14 12 11 13 14 18 18 17 19 20 16 16 15 11 15 13 13 13 15 18 21 22 22 20 22 21 19 21 21 20 15 11 12
13 9 4 4 6 3 5 9 9 7 10 14 9 11 8 6 12 16 16 15 15 13 13 13 15 15 14 13 12 14 17 17 19 23 21 20 19 20 22 28 14 14 9
4 7 6 6 7 2 3 7 11 11 10 4 4 5 4 6 6 10 9 10 11 12 11 11 12 9 10 12 16 16 15 15 20 21 21 18 19 19 17 23 19 14 12
2 1 2 8 7 8 9 6 7 12 16 17 14 9 4 2 5 6 6 5 7 8 9 9 11 12 18 17 20 18 19 20 24 24 23 21 19 18 14 15 18 15 17
3 3 7 10 7 7 8 7 10 13 11 8 7 6 5 4 5 7 8 6 10 9 5 12 10 13 16 15 14 14 6 8 9 16 18 18 22 20 15 14 20 19 19
8 8 12 9 7 9 9 4 11 2 1 4 4 5 4 3 3 7 9 9 9 10 13 14 15 16 16 16 15 17 19 16 7 4 13 18 13 10 17 13 16 18 13
5 7 9 9 8 10 13 5 5 3 2 2 2 3 4 7 2 9 9 8 9 10 9 9 10 11 12 13 14 15 15 17 17 13 3 9 7 10 10 14 6 8 4
8 7 6 9 11 11 12 9 5 4 8 2 2 2 4 4 8 10 8 7 5 3 4 4 5 7 7 9 9 8 7 9 11 12 8 6 5 6 2 4 5 6 6